Location: Sabalos
(43.2860°N, 0.1414°E)
Time: 08:30:49
(UTC+00:00)

Cosmos 2237 Rocket - Pass Details

Date: 05 July 2020
Orbit: 835 x 850 km, 71.0° (Epoch: 14 August)

Event Time Altitude Azimuth Distance (km) Brightness Sun altitude
Exits shadow 22:14:26 35° 166° (SSE) 1,337 2.7 -19.4°
Maximum altitude 22:16:32 54° 109° (ESE) 1,022 2.3 -19.6°
Drops below altitude 10° 22:22:05 10° 33° (NNE) 2,484 5.0 -20.0°
Sets 22:24:35 0° 29° (NNE) 3,424 5.9 -20.2°
